Вернуться в каталог

COSMOS 2251 DEB

АктивенLEO
NORAD 33838·DEBRIS·🇷🇺 Russia

Запущен Jun 16, 1993 с Plesetsk Cosmodrome

Loading…

Ближайшие Пролёты (ближайшие 24 часа)

TLE

СвежийSource: Space-Track

Эпоха: Sep 14, 2026, 06:09 UTC

1 33838U 93036CF  26257.25660493  .00000721  00000-0  19651-3 0  9998
2 33838  74.0393 353.5066 0026058  43.8773 346.7876 14.49035886925593

Отслеживайте COSMOS 2251 DEB в реальном времени с AllMySat

Download on the App Store